印度国家卫星-3DR星 (INSAT-3DR)

导读

INSAT 3DR是印度国家卫星系列中的多用途地球静止轨道卫星,由印度空间研究组织研发,于2016年9月8日从萨迪什·达万航天中心通过印度同步轨道卫星运载火箭2型发射升空,卫星质量2211kg,设计寿命10年。该卫星属于INSAT系列,主要承担通信、气象观测、灾害管理等任务,是印度 domestic通信与气象观测体系的重要组成部分。

基本信息
目录编号:
41752
目录名称:
INSAT 3DR
国际标识:
2016-054A
轨道中心:
EARTH
卫星名称:
印度国家卫星-3DR星
卫星全名:
印度国家卫星-3DR星 (INSAT-3DR)
卫星状态:
在轨 (已飞行3573 天)
发射日期:
2016-09-08 UTC
国别 :
印度 (IN)
星等 :
--
轨道信息
数据来源 国际轨道数据 AOE轨道数据
星历时间 2026-06-20T17:45:36+0800
19小时前
查看轨道信息
2026-06-21T06:00:00+0800
7小时前
查看轨道信息
半长轴 42164.868km 42164.896km
偏心率 0.0010425 0.0010304
轨道倾角 0.115° 0.116°
近地点辐角 187.444° 187.386°
升交点赤经 86.247° 86.416°
平近点角 215.292° 39.281°
近地点 35742.774km 35743.312km
远地点 35830.688km 35830.206km
周期 1436.104分钟 1436.105分钟
每日圈数 1.002713 1.002712
详细信息
平衡模式:
三轴稳定
覆盖范围:
全球
运营商:
印度空间研究组织
运营商所在国:
印度
制造商(研发单位):
印度空间研究组织
制造商所在国:
印度
使用方式:
暂无
卫星简介
印度先后发展了“印度卫星”(INSAT)和“地球静止卫星”(GSAT)两大静止轨道通信卫星系列,共发射卫星28颗,其中INSAT系列的前4颗向美国购买,后续卫星均由ISRO研制。在自行研制的24颗通信卫星中,有19颗发射成功,3颗发射失败,2颗发射部分失败。该卫星仍在工作。
2D轨道图
3D轨道图
轨道高度分析图
轨道倾角分析图
轨道综合分析图
查看轨道综合分析图